Location: Zagreb
(45.8000°N, 16.0000°E)
Time: 20:16:43
(UTC+01:00)

YUBILEINY - Pass Details

Date: 31 October 2020
Orbit: 1478 x 1509 km, 82.5° (Epoch: 01 December)

Event Time Altitude Azimuth Distance (km) Brightness Sun altitude
Rises 19:10:01 0° 356° (N) 4,612 ? -26.0°
Reaches altitude 10° 19:14:17 10° 15° (NNE) 3,627 ? -26.7°
Enters shadow 19:17:18 16° 35° (NE) 3,171 ? -27.2°
